Location: Prague
(50.0830°N, 14.4670°E)
Time: 02:39:31
(UTC+02:00)

FO-29 - Pass Details

Date: 01 April 2023
Orbit: 799 x 1322 km, 98.5° (Epoch: 29 May)

Event Time Altitude Azimuth Distance (km) Brightness Sun altitude
Rises 05:55:00 0° 15° (NNE) 4,310 13.3 -7.8°
Reaches altitude 10° 05:57:50 10° 18° (NNE) 3,304 12.8 -7.4°
Maximum altitude 06:05:30 69° 102° (ESE) 1,286 10.4 -6.2°
Drops below altitude 10° 06:12:23 10° 185° (S) 2,977 11.9 -5.1°
Sets 06:14:49 0° 188° (S) 3,861 12.4 -4.8°
